• în Republica Moldova
  • Lista ţărilor
  • Pe 7 zile
  • Temperatura apei
  • Hartă satelitară
  • Meteo pe hartă
  • Widget-uri
  • user-avatar
    Intrare

    Meteo pe oră la Fier

    Astăzi, 12 Decembrie, Marţi

    Timp Temperatura Precipitaţii Vânt Presiune Umiditate
    00:00 +9°C° 0 mm 8 m/s 764 mmHg 84%
    01:00 +9°C° 0 mm 8 m/s 764 mmHg 84%
    02:00 +9°C° 0 mm 7 m/s 764 mmHg 84%
    03:00 +9°C° 0 mm 7 m/s 764 mmHg 84%
    04:00 +10°C° 0 mm 7 m/s 764 mmHg 84%
    05:00 +10°C° 0 mm 7 m/s 764 mmHg 85%
    06:00 +10°C° 0 mm 7 m/s 764 mmHg 85%
    07:00 +10°C° 0 mm 6 m/s 764 mmHg 85%
    08:00 +11°C° 0 mm 6 m/s 764 mmHg 83%
    09:00 +14°C° 0 mm 6 m/s 764 mmHg 81%
    10:00 +15°C° 0 mm 7 m/s 764 mmHg 78%
    11:00 +15°C° 0 mm 7 m/s 764 mmHg 77%
    12:00 +16°C° 0 mm 7 m/s 764 mmHg 75%
    13:00 +16°C° 0 mm 7 m/s 764 mmHg 74%
    14:00 +16°C° 0 mm 7 m/s 764 mmHg 77%
    15:00 +15°C° 0 mm 6 m/s 764 mmHg 81%
    16:00 +14°C° 0 mm 6 m/s 764 mmHg 84%
    17:00 +13°C° 0 mm 6 m/s 764 mmHg 85%
    18:00 +13°C° 0 mm 6 m/s 765 mmHg 86%
    19:00 +11°C° 0 mm 6 m/s 765 mmHg 88%
    20:00 +11°C° 0 mm 6 m/s 765 mmHg 87%
    21:00 +11°C° 0 mm 6 m/s 765 mmHg 87%
    22:00 +10°C° 0 mm 6 m/s 766 mmHg 87%
    23:00 +10°C° 0 mm 6 m/s 766 mmHg 87%

    Mâine, 13 Decembrie, Miercuri

    Timp Temperatura Precipitaţii Vânt Presiune Umiditate
    00:00 +10°C° 0 mm 6 m/s 766 mmHg 87%
    01:00 +10°C° 0 mm 5 m/s 766 mmHg 87%
    02:00 +10°C° 0 mm 5 m/s 766 mmHg 87%
    03:00 +10°C° 0 mm 5 m/s 765 mmHg 87%
    04:00 +10°C° 0 mm 5 m/s 765 mmHg 87%
    05:00 +10°C° 0 mm 5 m/s 765 mmHg 87%
    06:00 +10°C° 0 mm 5 m/s 765 mmHg 87%
    07:00 +10°C° 0 mm 6 m/s 765 mmHg 88%
    08:00 +11°C° 0 mm 6 m/s 765 mmHg 84%
    09:00 +14°C° 0 mm 6 m/s 765 mmHg 80%
    10:00 +15°C° 0 mm 6 m/s 765 mmHg 77%
    11:00 +16°C° 0 mm 6 m/s 765 mmHg 74%
    12:00 +16°C° 0 mm 6 m/s 764 mmHg 70%
    13:00 +17°C° 0 mm 7 m/s 764 mmHg 67%
    14:00 +16°C° 0 mm 6 m/s 763 mmHg 72%
    15:00 +15°C° 0 mm 6 m/s 763 mmHg 76%
    16:00 +14°C° 0 mm 6 m/s 763 mmHg 80%
    17:00 +14°C° 0,1 mm 6 m/s 763 mmHg 82%
    18:00 +13°C° 0,1 mm 6 m/s 763 mmHg 84%
    19:00 +11°C° 0,1 mm 6 m/s 763 mmHg 87%
    20:00 +12°C° 0,8 mm 5 m/s 763 mmHg 88%
    21:00 +12°C° 0,8 mm 5 m/s 763 mmHg 89%
    22:00 +12°C° 0,8 mm 5 m/s 763 mmHg 90%
    23:00 +12°C° 1 mm 4 m/s 763 mmHg 92%

    Poimâine, 14 Decembrie, Joi

    Timp Temperatura Precipitaţii Vânt Presiune Umiditate
    00:00 +12°C° 1 mm 4 m/s 762 mmHg 93%
    01:00 +12°C° 1 mm 4 m/s 762 mmHg 95%
    02:00 +12°C° 0,3 mm 3 m/s 762 mmHg 95%
    03:00 +12°C° 0,3 mm 3 m/s 762 mmHg 94%
    04:00 +12°C° 0,3 mm 3 m/s 761 mmHg 94%
    05:00 +11°C° 0,1 mm 3 m/s 762 mmHg 94%
    06:00 +11°C° 0,1 mm 3 m/s 762 mmHg 94%
    07:00 +11°C° 0,1 mm 3 m/s 763 mmHg 94%
    08:00 +11°C° 0 mm 3 m/s 763 mmHg 88%
    09:00 +13°C° 0 mm 2 m/s 763 mmHg 81%
    10:00 +13°C° 0 mm 2 m/s 763 mmHg 75%
    11:00 +14°C° 0 mm 2 m/s 763 mmHg 70%
    12:00 +14°C° 0 mm 2 m/s 762 mmHg 64%
    13:00 +15°C° 0 mm 2 m/s 762 mmHg 58%
    14:00 +14°C° 0 mm 2 m/s 762 mmHg 63%
    15:00 +13°C° 0 mm 2 m/s 762 mmHg 68%
    16:00 +12°C° 0 mm 2 m/s 762 mmHg 72%
    17:00 +12°C° 0 mm 2 m/s 762 mmHg 75%
    18:00 +10°C° 0 mm 3 m/s 762 mmHg 77%
    19:00 +9°C° 0 mm 3 m/s 762 mmHg 80%
    20:00 +9°C° 0 mm 3 m/s 762 mmHg 80%
    21:00 +9°C° 0 mm 3 m/s 762 mmHg 80%
    22:00 +8°C° 0 mm 4 m/s 762 mmHg 80%
    23:00 +8°C° 0 mm 4 m/s 762 mmHg 79%

    15 Decembrie, Vineri

    Timp Temperatura Precipitaţii Vânt Presiune Umiditate
    00:00 +8°C° 0 mm 4 m/s 762 mmHg 78%
    01:00 +8°C° 0 mm 5 m/s 762 mmHg 76%
    02:00 +8°C° 0 mm 5 m/s 761 mmHg 76%
    03:00 +8°C° 0 mm 5 m/s 761 mmHg 76%
    04:00 +8°C° 0 mm 5 m/s 761 mmHg 75%
    05:00 +8°C° 0 mm 5 m/s 761 mmHg 75%
    06:00 +8°C° 0 mm 5 m/s 761 mmHg 75%
    07:00 +8°C° 0 mm 6 m/s 761 mmHg 75%
    08:00 +10°C° 0 mm 6 m/s 761 mmHg 73%
    09:00 +11°C° 0 mm 6 m/s 760 mmHg 71%
    10:00 +14°C° 0 mm 7 m/s 760 mmHg 69%
    11:00 +14°C° 0 mm 7 m/s 759 mmHg 69%
    12:00 +15°C° 0 mm 7 m/s 759 mmHg 70%
    13:00 +15°C° 0 mm 8 m/s 758 mmHg 70%
    14:00 +15°C° 0 mm 8 m/s 758 mmHg 74%
    15:00 +13°C° 0 mm 8 m/s 757 mmHg 78%
    16:00 +12°C° 0 mm 8 m/s 757 mmHg 82%
    17:00 +12°C° 0 mm 8 m/s 757 mmHg 83%
    18:00 +11°C° 0 mm 8 m/s 757 mmHg 84%
    19:00 +11°C° 0 mm 9 m/s 757 mmHg 85%
    20:00 +11°C° 0 mm 8 m/s 757 mmHg 85%
    21:00 +11°C° 0 mm 8 m/s 757 mmHg 86%
    22:00 +11°C° 0 mm 8 m/s 757 mmHg 86%
    23:00 +11°C° 0,1 mm 8 m/s 757 mmHg 87%

    16 Decembrie, Sâmbătă

    Timp Temperatura Precipitaţii Vânt Presiune Umiditate
    00:00 +11°C° 0,1 mm 8 m/s 757 mmHg 88%
    01:00 +11°C° 0,1 mm 8 m/s 757 mmHg 88%
    02:00 +11°C° 0,2 mm 8 m/s 756 mmHg 89%
    03:00 +12°C° 0,2 mm 8 m/s 756 mmHg 89%
    04:00 +12°C° 0,2 mm 8 m/s 756 mmHg 89%
    05:00 +12°C° 0,4 mm 8 m/s 756 mmHg 89%
    06:00 +12°C° 0,4 mm 8 m/s 756 mmHg 88%
    07:00 +12°C° 0,4 mm 8 m/s 756 mmHg 88%
    08:00 +13°C° 0,5 mm 8 m/s 756 mmHg 84%
    09:00 +15°C° 0,5 mm 8 m/s 756 mmHg 80%
    10:00 +16°C° 0,5 mm 8 m/s 756 mmHg 76%
    11:00 +16°C° 0,9 mm 8 m/s 756 mmHg 76%
    12:00 +16°C° 0,9 mm 8 m/s 756 mmHg 75%
    13:00 +16°C° 0,9 mm 7 m/s 755 mmHg 74%
    14:00 +15°C° 1,8 mm 7 m/s 755 mmHg 79%
    15:00 +14°C° 1,8 mm 6 m/s 755 mmHg 83%
    16:00 +13°C° 1,8 mm 5 m/s 755 mmHg 88%
    17:00 +13°C° 2,4 mm 5 m/s 756 mmHg 89%
    18:00 +13°C° 2,4 mm 5 m/s 756 mmHg 90%
    19:00 +12°C° 2,4 mm 4 m/s 756 mmHg 92%
    20:00 +12°C° 2,5 mm 4 m/s 757 mmHg 92%
    21:00 +12°C° 2,5 mm 4 m/s 757 mmHg 92%
    22:00 +11°C° 2,5 mm 3 m/s 757 mmHg 93%
    23:00 +11°C° 2,1 mm 3 m/s 757 mmHg 93%

    17 Decembrie, Duminică

    Timp Temperatura Precipitaţii Vânt Presiune Umiditate
    00:00 +11°C° 2,1 mm 3 m/s 757 mmHg 93%
    01:00 +11°C° 2,1 mm 3 m/s 757 mmHg 93%
    02:00 +11°C° 0,8 mm 3 m/s 757 mmHg 92%
    03:00 +12°C° 0,8 mm 2 m/s 756 mmHg 91%
    04:00 +12°C° 0,8 mm 2 m/s 756 mmHg 90%
    05:00 +12°C° 0,3 mm 2 m/s 756 mmHg 89%
    06:00 +12°C° 0,3 mm 2 m/s 756 mmHg 89%
    07:00 +12°C° 0,3 mm 2 m/s 757 mmHg 88%
    08:00 +12°C° 0,2 mm 2 m/s 757 mmHg 86%
    09:00 +12°C° 0,2 mm 2 m/s 757 mmHg 85%
    10:00 +13°C° 0,2 mm 2 m/s 757 mmHg 83%
    11:00 +13°C° 0,1 mm 2 m/s 757 mmHg 82%
    12:00 +13°C° 0,1 mm 2 m/s 757 mmHg 80%
    13:00 +14°C° 0,1 mm 2 m/s 757 mmHg 78%
    14:00 +13°C° 0 mm 2 m/s 757 mmHg 80%
    15:00 +13°C° 0 mm 2 m/s 757 mmHg 82%
    16:00 +12°C° 0 mm 2 m/s 757 mmHg 84%
    17:00 +12°C° 0 mm 2 m/s 758 mmHg 86%
    18:00 +10°C° 0 mm 2 m/s 758 mmHg 89%
    19:00 +10°C° 0 mm 1 m/s 758 mmHg 91%
    20:00 +9°C° 0 mm 2 m/s 759 mmHg 92%
    21:00 +9°C° 0 mm 2 m/s 759 mmHg 92%
    22:00 +9°C° 0 mm 2 m/s 760 mmHg 93%
    23:00 +8°C° 0 mm 2 m/s 760 mmHg 92%
    Arată mai mult